Tracking 30685 objects as of 17-Jun-2025
HD Live streaming from Space Station
objects crossing your sky now

PSLV DEB

Track PSLV DEB now!
10-day predictions


NORAD ID: 27142
Int'l Code: 2001-049CN
Perigee: 655.1 km
Apogee: 1,056.1 km
Inclination: 97.4 °
Period: 101.9 minutes
Semi major axis: 7226 km
RCS: 0.0118 m2 (small)
Launch date: October 22, 2001
Source: India (IND)
Launch site: SRIHARIKOTA (SRI)

Note: This is SATELLITE DEBRIS
Your satellite tracking list
Your tracking list is empty




NASA's NSSDC Master Catalog

Two Line Element Set (TLE):
1 27142U 01049CN  25168.53814648  .00000448  00000-0  17890-3 0  9995
2 27142  97.3979 268.1862 0277488 188.6813 170.9511 14.13188844207607
Source of the keplerian elements: AFSPC